This is the latest recevied weather packets stored in our database for station/object DL1DH-17. If no packets are shown the sender has not sent any weather packets the latest 10 day(s).
| Time | Temp. | Humidity | Pressure | Rain* | Wind** | Luminosity | Snow |
|---|---|---|---|---|---|---|---|
| 1778111360 | 11.67° C | 83% | 969.8 hPa | - | - | - | - |
| 1778110517 | 11.67° C | 83% | 969.7 hPa | - | - | - | - |
| 1778109677 | 11.67° C | 83% | 969.5 hPa | - | - | - | - |
| 1778108839 | 11.67° C | 83% | 969.4 hPa | - | - | - | - |
| 1778107997 | 11.67° C | 83% | 969.4 hPa | - | - | - | - |
| 1778107157 | 11.67° C | 82% | 969.5 hPa | - | - | - | - |
| 1778106317 | 11.67° C | 81% | 969.5 hPa | - | - | - | - |
| 1778105477 | 12.22° C | 80% | 969.4 hPa | - | - | - | - |
| 1778104636 | 12.22° C | 79% | 969.2 hPa | - | - | - | - |
| 1778103796 | 12.22° C | 78% | 969.2 hPa | - | - | - | - |
| 1778102957 | 12.78° C | 77% | 969.1 hPa | - | - | - | - |
| 1778102115 | 12.78° C | 76% | 969 hPa | - | - | - | - |
| 1778101274 | 12.22° C | 76% | 968.8 hPa | - | - | - | - |
| 1778100434 | 12.22° C | 76% | 968.8 hPa | - | - | - | - |
| 1778099594 | 12.78° C | 75% | 968.8 hPa | - | - | - | - |
| 1778098756 | 12.78° C | 75% | 968.8 hPa | - | - | - | - |
| 1778097915 | 12.78° C | 74% | 968.7 hPa | - | - | - | - |
| 1778097075 | 12.78° C | 73% | 968.5 hPa | - | - | - | - |
| 1778096234 | 12.78° C | 73% | 968.3 hPa | - | - | - | - |
| 1778095394 | 12.78° C | 73% | 968.2 hPa | - | - | - | - |
| 1778094553 | 12.78° C | 72% | 968 hPa | - | - | - | - |
| 1778093714 | 13.33° C | 71% | 967.7 hPa | - | - | - | - |
| 1778092874 | 13.33° C | 70% | 967.4 hPa | - | - | - | - |
| 1778092038 | 13.89° C | 68% | 967.1 hPa | - | - | - | - |
| 1778091194 | 14.44° C | 66% | 967.1 hPa | - | - | - | - |
* Rain since midnight (hover to see other rain measurements)
** Current wind speed in m/s (hover to see current wind gust speed)